GFSFLT1_sfc_temp_162.txt.gz
Temp
81 81 81 80 80 80 80 79 79 79 79 78 78 78 80 82 86 85 82 80 79 79 79 79 79 79 79 79 79 79 79 79 79
81 80 79 79 79 79 79 79 79 79 78 78 77 77 79 87 85 83 81 81 80 80 79 79 79 79 78 79 79 79 78 79 78
80 80 79 80 79 79 79 79 79 79 78 77 77 77 78 85 83 82 82 78 79 79 79 78 78 79 79 78 78 78 78 78 78
80 79 79 80 79 79 79 79 79 78 78 77 76 76 77 87 83 82 83 77 79 78 78 78 77 77 78 78 78 78 77 78 77
79 79 79 79 79 79 78 78 78 78 77 76 76 76 77 86 81 79 80 77 78 78 78 77 77 77 77 77 76 77 77 76 76
82 80 78 79 78 78 78 78 77 77 76 76 75 75 86 86 82 81 76 77 78 77 77 76 77 77 76 76 76 76 75 75 75
86 81 76 78 78 78 77 78 77 77 84 82 76 87 86 87 85 80 76 77 77 77 76 76 77 76 77 76 76 76 75 75 75
85 86 83 81 77 77 78 79 83 85 85 84 86 86 87 87 85 78 76 77 78 77 77 76 76 76 76 76 75 75 75 74 74
83 82 84 80 79 77 76 77 81 82 84 86 85 86 85 86 83 77 75 76 77 77 76 75 75 75 75 75 75 74 74 74 73
81 80 80 81 81 78 77 78 82 80 81 86 86 85 85 84 77 77 74 75 76 76 76 75 75 75 75 74 74 74 73 73 73
79 78 75 79 79 77 76 77 79 78 78 82 84 83 84 82 78 77 78 73 75 76 76 75 75 75 75 74 73 73 73 72 72
79 79 79 77 78 73 72 73 75 70 74 76 81 83 83 79 78 79 77 76 72 74 75 75 75 74 75 74 73 72 72 72 72
77 76 76 74 72 70 70 72 69 67 72 72 73 81 81 76 77 77 76 75 75 73 73 74 75 74 74 73 73 73 72 72 71
73 73 73 70 67 67 67 67 68 62 60 61 64 70 74 72 71 73 70 72 73 73 72 72 73 73 73 73 73 72 72 71 71
73 71 70 68 67 65 66 66 67 63 61 60 60 62 69 69 69 69 70 71 72 74 74 73 73 72 73 73 73 72 72 71 71
71 71 71 66 66 65 65 63 61 59 59 58 57 59 66 67 67 68 69 71 77 76 77 76 73 73 72 72 73 73 72 71 70
73 69 70 67 63 63 62 61 59 58 59 58 57 54 58 62 66 68 72 76 76 76 77 78 78 77 72 71 69 70 71 71 70
70 69 69 69 64 62 62 63 62 58 59 61 59 54 54 59 60 65 70 73 74 76 76 77 76 76 75 71 68 67 70 70 70
68 70 69 67 66 64 63 64 62 61 57 58 59 60 62 58 55 63 68 71 72 73 73 74 74 74 74 67 65 66 67 68 68
68 71 71 68 69 67 63 63 62 62 60 59 55 56 61 69 64 59 60 67 71 72 71 71 72 73 73 72 66 65 66 66 66

GFSFLT1_sfc_temp_165.txt.gz
Temp
81 81 80 79 79 80 80 79 79 79 79 78 78 79 80 81 82 81 80 79 80 80 79 79 79 79 79 79 79 79 79 79 79
81 80 80 79 79 80 79 79 79 78 78 78 78 79 80 82 81 81 79 79 79 79 79 79 79 79 79 78 78 79 78 78 78
80 80 80 79 79 79 79 79 79 78 78 77 77 77 78 81 80 81 80 77 79 79 78 78 78 79 78 78 78 78 78 77 77
80 79 79 79 79 79 79 79 79 78 77 77 76 77 78 80 81 81 80 77 78 78 78 78 77 77 77 78 78 77 77 77 77
79 79 79 79 79 79 78 79 79 78 77 76 76 77 78 80 78 78 78 77 78 78 78 77 77 77 77 77 77 77 76 76 76
81 81 78 78 79 78 78 78 78 77 76 76 76 76 86 82 78 78 75 77 78 78 77 77 77 77 77 77 77 76 76 75 75
85 81 77 77 77 77 77 77 77 77 81 80 76 83 86 83 78 77 76 77 78 78 77 77 76 76 77 76 76 75 75 75 75
87 84 82 81 77 77 76 77 80 82 82 82 85 86 87 85 79 76 76 77 78 77 76 76 76 76 76 76 75 75 75 74 74
84 78 74 78 80 79 77 78 80 80 84 86 86 86 86 85 79 76 75 76 77 76 76 76 75 75 75 75 75 74 74 74 74
79 78 81 79 79 77 75 77 77 80 83 83 85 86 85 81 78 76 74 75 76 76 76 75 76 75 75 74 74 74 73 73 73
79 78 78 79 78 74 75 76 74 81 82 80 80 84 84 79 76 76 76 73 74 76 76 75 76 75 75 74 73 73 73 73 72
82 78 78 79 78 76 75 76 74 80 79 74 71 77 80 78 76 75 76 72 72 74 75 75 75 75 74 73 73 72 72 72 72
81 81 78 77 76 73 72 73 72 73 73 71 68 73 78 77 77 73 75 73 75 72 73 74 74 74 74 73 73 72 72 71 71
75 77 76 73 68 69 69 68 69 69 68 64 62 63 69 71 73 73 73 73 73 73 71 72 73 73 73 73 73 72 72 71 71
77 73 75 74 68 65 65 65 65 64 64 62 60 60 62 65 67 71 72 71 71 71 71 71 71 72 73 73 73 72 72 71 71
76 73 72 72 68 65 65 63 61 60 63 60 58 58 61 63 63 66 69 69 71 71 70 72 70 71 72 72 73 73 72 71 70
75 71 71 70 68 67 64 62 59 59 62 58 57 53 57 60 61 63 65 68 70 71 71 71 72 70 71 69 69 70 71 71 70
73 74 70 69 68 65 62 62 59 57 59 60 58 54 53 56 59 62 63 64 68 70 73 72 71 68 68 69 67 68 70 70 70
70 70 70 68 66 65 62 62 61 60 58 59 59 60 60 53 52 59 63 64 66 70 71 71 74 75 72 67 66 67 67 68 69
71 69 70 69 67 67 66 64 62 61 59 59 56 56 58 61 57 53 58 62 65 70 72 71 70 71 71 69 65 66 66 66 67

GFSFLT1_sfc_temp_168.txt.gz
Temp
81 81 80 80 80 80 79 79 79 79 78 78 79 80 79 79 74 73 75 74 80 80 79 79 79 79 79 78 79 78 79 79 79
81 80 80 79 79 79 79 79 78 78 78 78 78 79 79 77 75 72 73 75 79 79 79 79 79 79 78 78 78 78 78 78 78
80 80 79 79 79 79 79 79 78 78 77 77 78 78 79 79 74 73 73 76 78 79 78 78 78 78 77 77 77 77 77 77 77
80 79 79 78 78 79 79 79 78 77 77 77 77 78 77 76 74 77 73 77 78 78 78 78 77 77 77 77 77 77 77 77 77
79 78 79 79 78 78 78 79 78 77 76 76 77 77 77 74 74 74 73 77 78 78 77 77 77 77 77 77 77 76 76 76 76
76 77 78 78 78 78 78 78 78 76 76 76 76 75 76 75 73 72 75 78 78 77 77 77 77 77 77 76 76 76 75 75 75
78 77 77 78 77 77 76 77 77 76 71 70 74 71 75 75 73 73 76 77 78 78 77 77 77 77 76 76 76 75 75 75 75
78 72 73 71 75 71 72 73 72 71 73 72 72 75 75 74 73 73 76 77 77 77 77 76 76 76 76 75 75 75 75 74 74
71 71 70 71 70 70 69 69 70 73 78 75 74 76 74 72 70 72 75 76 77 77 76 75 75 76 75 75 74 74 74 74 74
69 69 69 70 69 70 69 69 67 70 76 77 77 78 75 70 69 67 74 75 76 76 76 75 75 76 74 74 74 73 73 73 73
70 70 71 70 69 68 68 68 66 67 73 70 70 75 74 69 68 68 68 73 74 76 75 76 75 75 74 74 73 73 73 73 72
72 73 72 70 69 69 71 68 66 68 71 66 65 72 74 72 69 71 68 68 72 74 75 74 74 73 74 73 72 72 72 71 71
70 69 71 68 68 67 67 66 64 66 66 60 62 64 70 70 70 69 70 65 68 71 73 74 74 73 73 73 72 72 71 71 71
68 67 67 67 66 66 66 66 65 62 61 61 61 62 65 67 68 66 66 66 65 65 71 72 73 73 73 73 73 72 72 72 71
68 66 67 68 65 65 65 64 63 62 60 60 60 61 62 63 63 63 65 65 66 65 64 64 66 72 73 73 73 73 72 71 71
68 65 65 67 64 64 64 63 61 60 60 58 58 59 60 61 60 62 62 64 64 66 67 63 63 66 72 72 73 73 72 71 70
68 65 68 66 64 64 62 62 59 59 60 56 56 54 56 58 60 61 62 62 64 65 69 65 65 66 65 67 70 70 71 71 70
66 65 67 65 63 61 62 61 59 57 59 59 57 52 51 55 58 59 60 60 60 61 65 67 66 65 64 65 65 68 70 70 70
66 65 69 66 64 61 62 61 60 59 57 58 58 58 58 52 52 56 58 60 60 60 61 64 66 65 64 64 64 67 67 68 69
64 64 67 64 64 63 62 61 60 58 58 59 55 56 56 56 53 52 54 58 59 60 63 65 66 64 64 60 62 66 66 66 67

GFSFLT1_sfc_temp_174.txt.gz
Temp
80 80 80 79 79 79 78 78 78 78 79 79 79 78 77 75 71 70 72 72 79 79 79 78 78 78 78 78 79 78 78 79 78
80 80 79 79 79 78 78 78 78 78 78 79 79 77 75 71 69 69 70 73 79 79 78 77 77 77 78 78 78 78 78 78 78
80 79 79 79 79 78 78 78 78 78 78 78 79 77 75 72 69 69 70 76 78 78 77 77 76 76 77 77 77 78 78 78 77
79 79 79 78 78 78 78 77 77 77 77 78 77 76 74 68 69 72 70 77 78 77 77 77 77 76 76 76 77 77 77 77 77
78 78 79 78 78 78 78 77 77 77 77 77 77 75 73 68 69 70 71 77 78 77 76 77 77 77 77 76 75 75 76 76 76
75 75 77 78 78 78 78 77 76 76 76 76 75 73 68 68 68 69 76 77 78 76 76 76 77 77 76 76 76 76 75 74 75
75 74 76 78 78 77 78 77 76 74 67 68 71 68 67 67 68 70 76 77 77 76 75 76 76 76 75 76 75 75 75 75 74
70 69 71 70 75 71 72 72 70 68 67 67 66 67 66 66 68 72 75 76 77 76 75 74 74 74 74 74 74 75 74 75 74
67 68 68 69 69 69 68 67 67 67 67 67 70 65 65 65 66 70 74 75 76 76 75 74 74 73 73 73 73 74 74 73 73
67 67 67 67 68 67 67 66 66 65 66 71 71 64 64 63 65 66 73 75 75 76 75 74 74 73 73 73 72 72 72 72 73
67 66 67 67 67 67 67 66 66 64 65 70 71 69 63 62 64 66 68 73 75 75 75 74 74 73 72 72 72 72 72 72 72
68 67 66 66 66 66 66 65 64 62 65 65 69 69 66 63 63 67 65 68 72 74 74 74 74 73 73 72 71 71 72 71 71
66 65 65 65 65 65 64 63 61 59 59 60 64 66 64 65 63 66 67 64 66 71 72 73 74 73 72 72 71 71 71 72 72
65 64 64 64 64 63 63 61 60 58 58 60 61 62 64 64 65 63 62 64 65 66 71 71 72 73 73 73 73 72 72 71 71
64 63 63 63 62 62 61 60 59 57 59 60 60 60 61 60 61 62 63 63 64 64 66 66 67 72 72 72 72 72 72 71 71
63 63 63 62 62 61 61 59 58 59 60 59 58 59 60 60 61 61 62 62 63 64 64 64 64 66 71 72 72 72 72 71 70
63 62 62 61 60 60 60 59 59 59 59 57 56 54 57 59 60 61 62 61 62 63 64 63 63 63 65 66 70 70 71 71 70
64 65 62 61 60 59 60 61 60 58 58 59 57 53 53 55 58 59 60 60 60 60 61 62 62 62 61 66 66 68 70 70 70
63 65 62 60 60 59 62 61 60 59 57 55 58 57 56 52 52 57 58 59 59 59 60 60 61 60 60 63 64 67 68 69 69
62 62 64 62 61 62 61 60 59 60 59 57 55 56 54 53 53 52 54 57 58 59 59 58 59 60 60 60 63 66 66 67 68

GFSFLT1_sfc_temp_180.txt.gz
Temp
80 79 79 79 79 78 78 78 78 78 78 78 78 77 76 73 69 69 71 71 79 79 78 78 78 78 78 78 78 79 79 79 78
80 79 78 79 78 78 78 78 78 78 78 78 77 76 75 69 68 69 69 72 78 78 77 77 77 78 78 78 78 78 78 78 78
79 79 78 78 78 78 78 78 78 78 78 77 76 75 73 70 68 69 70 76 78 78 77 77 76 77 77 78 78 78 77 78 78
79 78 78 77 78 78 77 77 77 77 78 76 76 74 73 67 68 71 69 77 77 78 77 77 77 76 77 77 77 77 77 77 77
78 78 78 78 78 77 77 77 77 77 77 76 75 73 71 67 68 68 70 77 78 77 77 77 75 76 76 76 76 76 76 76 76
74 75 77 78 77 77 77 77 76 76 76 75 74 71 66 66 67 68 75 77 77 76 77 76 76 75 75 76 76 75 75 75 75
73 74 76 77 77 76 76 76 75 71 66 69 70 66 66 66 67 69 76 77 77 76 76 76 75 75 75 75 75 75 74 74 75
70 69 71 70 74 70 70 69 67 65 66 66 65 65 65 65 66 72 75 76 77 76 75 75 75 75 74 74 74 74 74 74 73
67 68 68 68 68 68 67 66 65 65 66 64 64 63 64 64 65 70 74 75 76 76 75 75 74 74 74 74 73 74 74 73 73
66 66 66 67 67 67 66 65 65 65 65 65 63 62 63 63 64 65 73 75 75 76 75 75 74 74 73 73 73 73 73 73 73
67 65 66 65 66 66 65 64 64 63 62 64 64 63 62 63 64 65 68 73 74 75 75 74 74 74 73 73 72 72 72 72 72
66 65 64 64 65 65 65 63 62 61 62 60 62 62 61 64 64 65 65 68 72 73 74 74 74 74 73 73 72 72 71 71 71
65 64 64 65 64 64 63 61 59 58 58 58 59 60 61 62 62 64 66 65 66 70 72 73 74 73 73 73 72 72 71 71 71
64 64 63 64 63 62 63 62 59 57 57 58 59 60 60 60 63 62 64 65 63 65 70 71 72 73 73 73 73 72 71 71 70
63 62 63 62 61 61 60 61 59 59 59 60 60 60 60 60 59 61 62 62 63 64 65 65 67 72 73 73 73 72 72 71 71
63 62 62 61 61 60 59 57 56 59 59 56 56 59 60 60 60 61 61 61 62 64 63 62 64 66 71 72 73 73 72 71 71
62 61 61 61 60 60 58 57 57 58 56 54 54 53 57 59 60 61 61 60 62 62 62 62 62 63 63 65 70 71 71 71 70
62 61 61 60 59 60 57 57 56 54 56 59 56 53 51 56 58 59 61 60 60 60 61 61 61 60 61 64 66 68 70 70 70
61 61 61 59 59 58 58 58 57 56 55 57 58 57 57 52 53 57 58 60 59 59 60 60 60 60 60 63 64 67 68 69 70
61 61 60 60 60 59 59 57 58 61 58 57 55 55 54 54 52 52 55 58 59 60 59 59 59 59 60 59 61 66 67 67 68

GFSFLT1_sfc_temp_183.txt.gz
Temp
80 80 80 79 79 79 79 79 79 79 78 78 78 77 76 77 80 80 79 80 79 78 78 78 79 78 79 79 79 79 79 79 78
80 79 79 79 79 78 78 79 79 78 78 78 77 76 75 80 80 79 79 80 78 78 78 78 78 78 78 78 78 79 79 78 78
79 79 79 79 78 78 78 78 78 78 78 77 76 75 75 79 79 79 80 77 78 78 77 78 77 77 77 78 78 78 78 78 77
79 79 78 79 78 78 78 78 78 78 77 76 76 74 73 80 79 80 80 77 77 77 77 76 76 77 77 77 77 78 77 77 77
78 78 78 77 78 78 78 77 77 77 77 76 75 74 73 79 79 80 80 77 78 77 76 76 76 77 77 77 76 76 76 76 76
81 78 77 77 77 77 77 77 77 76 76 75 74 73 79 80 80 80 76 77 77 77 76 76 76 76 76 76 75 75 75 75 75
80 78 76 76 77 77 77 77 76 74 77 79 74 79 78 80 79 80 76 77 77 77 76 76 76 75 76 76 75 75 75 75 75
78 78 78 78 77 78 77 76 77 75 76 76 77 77 79 80 80 77 75 76 76 76 76 75 75 75 75 75 75 74 74 74 74
76 76 77 77 76 77 76 74 74 76 76 77 77 77 78 79 79 77 74 76 76 76 76 75 75 74 74 74 74 73 73 74 74
75 75 75 74 75 74 73 74 73 73 76 77 77 76 77 77 79 79 73 75 75 75 76 75 75 74 74 74 74 73 73 73 73
76 75 73 73 73 73 73 73 72 72 76 76 75 76 75 77 77 78 77 73 75 75 75 75 75 74 74 73 73 73 73 73 72
75 73 72 71 71 72 71 72 72 72 74 73 74 74 75 75 75 75 77 76 71 74 75 74 74 74 74 73 73 72 72 72 72
74 76 73 74 72 73 72 71 69 71 72 71 71 71 73 74 72 73 73 74 77 72 71 74 74 74 74 73 73 72 72 72 71
76 76 73 73 71 70 68 67 69 68 68 68 69 70 69 73 72 72 71 72 74 75 70 71 72 73 74 73 73 72 71 71 71
74 73 72 72 70 66 66 66 65 68 67 66 64 67 66 65 70 70 69 70 72 70 72 71 72 72 73 73 73 73 72 71 70
73 73 72 71 70 66 66 64 66 63 66 65 63 63 64 66 65 68 67 68 69 71 72 71 70 71 71 72 73 73 72 72 71
71 71 70 70 66 66 67 66 61 62 65 65 65 61 63 67 64 67 65 64 65 65 64 68 64 65 71 69 70 71 72 71 71
70 71 70 69 65 64 66 66 64 60 62 65 65 61 60 62 61 62 63 64 63 62 62 62 63 63 64 65 67 68 70 71 70
69 70 71 69 67 65 66 66 66 65 59 63 64 63 64 61 56 61 62 63 62 60 61 65 64 62 63 64 65 67 68 69 70
68 69 70 68 68 66 64 65 66 67 63 64 60 61 58 59 62 58 59 62 61 61 62 61 61 62 61 62 62 66 67 68 69

GFSFLT1_sfc_temp_186.txt.gz
Temp
80 80 80 79 79 79 79 79 79 78 78 78 77 77 78 81 85 84 82 79 78 79 78 78 78 78 78 79 79 79 79 79 78
80 80 79 79 79 79 79 79 79 78 78 77 77 76 77 86 84 82 79 79 77 78 78 78 78 78 78 78 78 78 78 78 78
80 79 79 79 79 78 78 78 79 78 78 77 76 75 76 85 85 83 79 77 77 78 77 77 78 77 77 77 77 78 78 77 77
79 79 79 79 78 78 78 78 78 78 77 76 75 75 75 86 85 86 83 77 77 78 77 77 77 77 76 77 77 77 77 77 77
79 78 78 78 78 78 78 78 78 77 77 76 75 74 76 85 85 84 81 77 78 77 77 76 77 77 77 76 76 76 76 76 76
82 80 77 78 78 78 78 77 77 77 76 75 74 74 84 85 85 84 76 77 77 77 76 76 76 76 76 76 76 75 75 75 75
85 80 76 78 77 77 77 77 76 76 85 82 75 87 86 85 84 81 76 77 77 76 76 76 76 76 76 75 75 75 74 74 75
86 82 83 83 78 83 81 80 84 84 85 85 86 86 86 86 86 78 75 76 76 76 75 75 75 75 75 75 75 74 74 74 74
83 82 82 82 81 81 82 80 83 82 85 86 86 86 86 87 86 78 75 76 76 76 76 75 75 75 74 74 74 74 74 73 73
83 82 82 80 81 79 79 79 78 82 85 86 85 85 85 85 85 80 74 75 75 76 75 75 75 74 74 74 74 73 73 73 73
84 82 80 81 80 77 75 75 78 82 84 83 84 85 85 84 84 80 77 74 75 74 75 75 75 74 74 73 73 72 72 72 73
83 79 76 78 79 78 79 80 80 82 83 83 83 83 83 83 82 81 80 76 72 72 74 74 74 74 74 73 73 72 72 72 72
76 74 72 77 80 79 79 79 79 80 82 81 81 82 81 82 80 80 80 78 76 72 71 74 74 74 74 73 73 72 72 72 71
81 79 80 79 77 76 77 78 79 78 78 79 81 82 80 78 79 77 78 77 77 75 71 71 72 73 74 73 72 72 72 71 71
82 82 81 81 77 70 71 75 77 78 77 75 74 74 75 76 75 77 77 75 75 73 75 74 74 71 73 73 73 72 72 71 71
81 80 80 80 77 69 70 71 74 71 76 71 67 67 68 71 73 77 77 76 74 74 75 74 72 73 71 72 73 73 73 72 71
79 78 78 79 77 72 70 72 67 68 73 73 72 67 66 70 71 73 69 68 72 69 72 69 67 70 69 71 70 71 72 72 71
77 78 78 77 74 71 72 73 71 66 68 73 71 67 66 64 67 65 65 69 68 69 69 63 65 66 66 67 68 68 70 71 71
77 78 78 77 73 72 74 74 74 72 65 67 73 74 71 64 60 64 66 68 69 66 63 62 63 66 65 66 66 67 68 69 70
75 77 77 77 77 76 75 73 73 74 70 71 70 70 70 67 65 60 64 68 63 66 66 62 64 62 63 63 64 66 67 68 69

GFSFLT1_sfc_temp_192.txt.gz
Temp
80 80 80 79 79 79 79 78 78 78 78 78 78 78 78 79 74 73 73 72 79 79 78 78 78 78 78 78 78 78 78 78 78
80 80 79 79 79 79 79 79 78 78 77 77 77 78 78 79 75 72 71 73 78 78 78 78 78 78 77 77 78 78 78 78 78
80 79 79 79 79 78 78 78 78 78 77 77 77 78 77 79 75 72 71 76 78 78 78 77 77 77 77 77 77 77 77 77 77
79 79 79 79 78 78 78 78 78 77 77 76 77 77 76 77 74 77 71 77 78 78 77 77 77 77 77 76 77 76 76 77 76
78 78 78 78 78 78 78 78 78 77 76 76 76 76 75 76 74 71 72 77 78 77 77 77 77 77 77 76 76 75 75 75 76
77 76 77 78 78 78 77 77 77 76 76 76 76 75 72 77 73 70 75 77 77 77 76 76 76 76 76 76 76 75 74 74 75
79 77 77 78 77 77 77 77 77 75 72 71 74 71 76 74 71 70 75 77 77 76 76 76 76 76 75 75 75 74 74 75 74
75 73 73 72 75 72 74 73 72 71 74 76 76 76 75 76 73 73 75 76 76 76 76 75 75 75 75 74 75 74 75 74 74
73 71 72 71 71 71 70 69 72 76 76 76 78 78 78 74 73 70 74 75 76 76 75 75 75 75 75 74 74 74 74 74 74
72 73 70 70 70 70 69 69 69 68 73 77 75 77 77 74 73 67 73 74 75 76 76 75 75 75 74 74 74 73 73 74 73
75 74 71 71 69 69 69 67 65 66 67 76 77 77 76 73 72 71 68 73 74 75 75 75 75 75 74 74 73 73 73 73 73
74 70 71 68 70 70 68 67 67 66 73 72 75 76 76 74 71 72 71 70 72 73 74 75 75 75 74 74 73 72 72 72 72
72 72 69 69 67 67 67 67 67 67 69 72 73 74 75 73 71 71 69 66 69 70 72 74 74 74 74 74 73 73 72 72 72
72 69 67 68 66 66 67 66 66 65 68 71 71 72 70 69 72 70 67 66 66 65 71 71 72 74 74 74 74 72 72 72 71
74 69 69 67 67 66 66 66 69 68 67 70 66 64 65 66 67 66 68 66 65 65 67 67 68 72 73 73 74 73 72 72 71
72 70 68 68 67 66 67 66 66 64 64 62 60 60 62 63 66 68 64 66 68 65 64 64 65 67 71 72 73 74 73 72 72
73 71 71 68 66 69 65 65 62 62 63 61 60 56 58 61 64 66 63 64 64 67 65 63 65 63 63 66 70 71 73 72 71
73 71 70 68 67 63 64 64 63 59 61 63 61 55 53 56 59 61 62 61 61 63 62 62 63 63 63 66 66 68 70 71 71
72 73 71 69 68 65 64 67 66 62 59 61 66 63 60 54 52 61 60 61 61 61 61 61 61 62 62 64 66 67 68 69 70
72 72 71 69 66 66 65 65 64 65 61 60 60 60 59 59 55 52 58 61 59 59 60 59 60 61 61 60 62 66 67 68 69

GFSFLT1_sfc_temp_195.txt.gz
Temp
80 80 79 79 79 79 78 78 78 78 78 78 78 79 79 76 71 69 71 71 79 79 78 78 78 78 78 77 78 78 78 77 77
80 79 79 79 79 79 78 78 78 78 77 78 78 79 78 73 69 69 70 73 78 79 78 78 78 77 77 77 77 77 78 77 78
80 79 79 79 79 78 78 78 78 77 77 77 78 78 77 74 70 70 69 77 78 78 78 77 77 78 77 76 76 77 77 77 77
79 79 79 79 78 78 78 78 77 77 76 77 77 77 76 69 71 74 70 77 78 78 77 77 77 77 76 76 76 77 76 77 76
78 78 78 78 78 78 78 77 77 77 76 77 77 76 75 69 70 69 72 77 78 77 76 76 77 77 76 76 76 76 76 76 76
76 76 77 78 78 78 77 77 77 76 76 76 76 75 72 69 69 69 75 77 77 77 76 76 76 76 76 76 75 76 75 75 75
76 75 75 77 78 77 77 77 76 75 70 69 73 72 74 70 68 70 75 76 77 76 76 75 75 75 75 76 76 75 75 74 74
73 72 73 71 74 72 74 72 71 69 69 70 72 72 70 70 68 72 75 76 76 76 76 75 75 75 76 75 75 75 74 74 74
70 70 69 69 69 69 68 67 68 68 72 73 72 73 73 70 67 71 74 75 76 76 76 75 75 75 75 73 73 74 74 73 73
69 70 68 68 68 68 67 67 67 66 67 72 72 72 71 71 68 67 73 74 75 76 76 75 75 75 74 73 73 73 74 73 73
69 70 69 67 69 68 67 66 64 65 66 70 71 74 73 69 69 69 70 73 74 75 75 75 75 75 74 73 72 72 72 72 72
69 69 68 67 68 67 67 65 65 64 67 66 69 73 71 71 70 67 69 68 72 73 74 75 75 75 74 74 73 73 72 72 71
69 68 67 67 67 66 65 65 64 65 66 65 66 71 71 69 69 69 68 66 67 69 73 73 74 74 74 74 73 72 72 72 71
70 69 67 67 64 64 66 65 65 65 65 66 67 67 69 67 68 67 66 64 64 64 70 71 72 74 74 74 73 72 72 71 71
72 68 67 66 64 64 64 65 64 64 65 69 64 62 63 63 63 63 64 65 64 63 65 65 67 72 73 74 73 73 72 72 71
70 69 68 67 65 65 66 64 62 63 62 61 59 59 60 61 63 66 64 65 66 63 62 64 65 65 71 73 73 73 73 72 71
71 68 66 67 64 64 63 62 60 60 60 58 57 54 57 59 62 64 63 62 65 64 65 62 63 63 61 65 70 71 72 72 71
62 65 67 67 66 63 62 61 61 58 59 61 58 52 51 57 60 61 62 59 60 61 61 61 62 62 62 65 66 68 70 71 71
65 65 67 67 65 64 63 64 61 60 58 59 63 58 57 52 51 60 60 60 60 60 61 60 60 61 61 63 64 67 68 68 70
65 67 68 66 65 65 64 63 62 61 58 58 57 57 56 56 53 51 56 57 57 56 56 57 58 59 60 60 63 64 64 66 66

GFSFLT1_sfc_temp_198.txt.gz
Temp
80 80 79 79 79 78 78 78 78 77 78 78 79 78 77 74 69 68 70 70 79 79 78 78 77 77 77 77 77 78 77 78 77
80 79 79 79 79 79 78 78 78 77 78 78 79 78 75 69 68 68 68 71 79 78 78 78 77 77 77 77 78 78 77 77 77
80 79 79 79 79 78 78 78 77 77 77 78 78 77 75 72 68 68 68 76 78 78 77 77 77 77 76 76 76 77 77 76 76
79 79 79 79 79 78 78 78 77 77 77 77 77 76 73 67 68 72 69 77 78 77 77 76 77 77 76 76 76 76 76 76 76
78 78 78 78 78 78 78 78 77 77 77 77 77 75 73 67 68 68 71 77 77 77 76 76 76 76 77 76 76 76 75 75 75
75 76 76 78 78 78 77 77 76 76 76 76 76 74 68 66 67 68 75 77 77 77 76 76 76 76 76 76 76 75 76 74 75
74 74 76 77 77 77 77 77 76 74 69 68 72 70 71 66 66 68 75 76 76 76 75 75 75 76 75 75 74 74 75 74 73
70 70 72 71 75 70 73 72 70 68 68 68 70 69 67 67 67 71 75 76 76 76 75 75 75 75 74 74 74 74 75 73 73
66 69 69 69 69 68 68 67 67 67 68 66 67 68 71 69 67 68 74 75 76 76 75 75 75 74 73 74 74 74 74 74 73
67 68 69 68 67 67 66 66 66 65 66 66 67 67 70 68 67 65 73 74 75 76 76 75 75 74 74 73 73 73 73 73 72
68 68 68 68 67 67 66 66 65 64 64 67 68 69 70 70 67 66 68 73 74 75 75 75 75 74 73 73 73 72 73 72 72
71 69 68 68 68 66 66 65 64 63 65 65 68 69 68 68 66 68 66 67 71 73 74 75 75 74 74 73 73 73 72 72 72
69 67 67 67 66 66 65 64 62 62 63 65 66 67 68 66 67 68 67 64 66 69 72 73 74 74 74 73 73 72 72 72 72
68 66 67 67 66 65 65 64 63 62 63 65 64 66 67 67 67 64 64 64 63 63 69 71 72 74 74 73 73 72 71 72 71
67 67 68 66 65 63 64 64 63 63 63 66 63 61 64 62 64 63 64 64 63 63 65 63 66 72 73 73 73 73 72 71 71
66 65 66 65 65 64 65 62 62 61 62 60 60 60 58 59 61 61 63 64 64 62 62 63 62 64 71 73 73 73 73 72 71
66 65 64 65 63 62 63 62 60 60 61 60 59 55 56 58 60 62 63 63 64 61 64 63 62 62 61 64 70 71 72 72 71
63 66 65 65 64 63 63 63 61 59 58 58 57 51 52 57 59 61 60 60 61 61 61 60 62 62 62 63 65 68 70 71 71
63 63 63 63 65 64 63 63 60 60 57 58 61 57 56 54 53 58 59 58 58 58 59 60 60 61 61 63 64 66 66 67 70
63 63 63 64 65 64 62 61 61 60 58 57 56 55 54 54 52 53 54 55 55 55 55 56 57 58 59 60 62 64 64 65 66